STARLINK-3995 (52632 NORAD) Tracking and Keplerian Element Data
This shows tracking and keplerian element data for the satellite.
Feedback or suggestion? Click here.
Element | Value |
Catalog | 52632 |
Name | STARLINK-3995 |
Epoch Orbit | 955 |
Epoch Day | 193.16667824 |
Epoch Year | 2022 |
RAAN | 151.8111 |
Inclination | 53.2174 |
Eccentricity | 0.0001365 |
Argument of Perigee | 70.0905 |
Mean Anonmoly | 104.0069 |
Mean Motion | 15.53634165 |
Decay Rate | -0.01058433 |
L1 | 1 52632U 22052AL 22193.16667824 -.01058433 00000+0 -17935-1 0 9997 |
L2 | 2 52632 53.2174 151.8111 0001365 70.0905 104.0069 15.53634165 9554 |
Live tracking and technical data element details for STARLINK-3995 (NORAD 52632). STARLINK-3995 can be tracked NOW for your location showing map with azimuth and elevation plus other details from your city location.
Track the satellite on the map from your city or location and see movement details for azimuth, elevation, latitude, longitude, range, height, and movement on the map or in text.
IsCatalogInMostPopularTable: catalog: 52632, numindb: 6
Update: records affected: 1
GetName: 52632 STARLINK-3995
Hit Count: updated at: Sun, 14 Aug 2022 00:09:58 GMT